TimeCDT,TemperatureF,Dew PointF,Humidity,Sea Level PressureIn,VisibilityMPH,Wind Direction,Wind SpeedMPH,Gust SpeedMPH,PrecipitationIn,Events,Conditions,WindDirDegrees,DateUTC
12:14 AM,33.8,26.6,75,30.06,10.0,West,8.1,-,N/A,,Clear,270,2014-04-05 05:14:00
12:34 AM,33.8,26.6,75,30.06,10.0,West,6.9,-,N/A,,Clear,260,2014-04-05 05:34:00
12:54 AM,33.8,26.6,75,30.07,10.0,WSW,6.9,-,N/A,,Clear,250,2014-04-05 05:54:00
1:14 AM,32.0,24.8,75,30.07,10.0,WSW,4.6,-,N/A,,Clear,240,2014-04-05 06:14:00
1:34 AM,32.0,26.6,80,30.07,10.0,WSW,3.5,-,N/A,,Clear,240,2014-04-05 06:34:00
1:54 AM,30.2,24.8,80,30.08,10.0,WSW,3.5,-,N/A,,Clear,240,2014-04-05 06:54:00
2:14 AM,30.2,24.8,80,30.08,10.0,SW,3.5,-,N/A,,Clear,230,2014-04-05 07:14:00
2:34 AM,30.2,24.8,80,30.08,10.0,Calm,Calm,-,N/A,,Clear,0,2014-04-05 07:34:00
2:54 AM,30.2,24.8,80,30.09,10.0,SSW,4.6,-,N/A,,Clear,210,2014-04-05 07:54:00
3:14 AM,30.2,24.8,80,30.09,10.0,SW,3.5,-,N/A,,Clear,220,2014-04-05 08:14:00
3:34 AM,30.2,24.8,80,30.09,10.0,SW,3.5,-,N/A,,Clear,220,2014-04-05 08:34:00
3:54 AM,30.2,24.8,80,30.08,10.0,SW,5.8,-,N/A,,Clear,230,2014-04-05 08:54:00
4:14 AM,30.2,24.8,80,30.09,10.0,SW,4.6,-,N/A,,Clear,230,2014-04-05 09:14:00
4:34 AM,30.2,24.8,80,30.09,7.0,SW,4.6,-,N/A,,Clear,230,2014-04-05 09:34:00
4:54 AM,28.4,24.8,86,30.09,7.0,SW,4.6,-,N/A,,Clear,230,2014-04-05 09:54:00
5:14 AM,28.4,24.8,86,30.09,7.0,SW,4.6,-,N/A,,Clear,220,2014-04-05 10:14:00
5:34 AM,28.4,24.8,86,30.09,10.0,SW,4.6,-,N/A,,Clear,220,2014-04-05 10:34:00
5:54 AM,28.4,24.8,86,30.09,7.0,Calm,Calm,-,N/A,,Clear,0,2014-04-05 10:54:00
6:14 AM,28.4,24.8,86,30.09,7.0,Calm,Calm,-,N/A,,Clear,0,2014-04-05 11:14:00
6:34 AM,28.4,23.0,80,30.09,5.0,Calm,Calm,-,N/A,,Haze,0,2014-04-05 11:34:00
6:54 AM,28.4,23.0,80,30.10,5.0,South,3.5,-,N/A,,Haze,190,2014-04-05 11:54:00
7:14 AM,28.4,24.8,86,30.11,5.0,South,3.5,-,N/A,,Haze,190,2014-04-05 12:14:00
7:34 AM,30.2,24.8,80,30.11,5.0,Calm,Calm,-,N/A,,Haze,0,2014-04-05 12:34:00
7:53 AM,30.2,26.6,86,30.11,5.0,SSE,3.5,-,N/A,,Haze,160,2014-04-05 12:53:00
8:14 AM,32.0,26.6,80,30.12,7.0,Calm,Calm,-,N/A,,Clear,0,2014-04-05 13:14:00
8:34 AM,33.8,26.6,75,30.12,7.0,South,3.5,-,N/A,,Clear,190,2014-04-05 13:34:00
8:53 AM,33.8,26.6,75,30.12,10.0,South,6.9,-,N/A,,Clear,190,2014-04-05 13:53:00
9:14 AM,35.6,26.6,70,30.12,10.0,South,4.6,-,N/A,,Clear,190,2014-04-05 14:14:00
9:34 AM,37.4,26.6,65,30.12,10.0,SSW,6.9,-,N/A,,Clear,200,2014-04-05 14:34:00
9:54 AM,37.4,26.6,65,30.12,10.0,South,8.1,-,N/A,,Clear,180,2014-04-05 14:54:00
10:14 AM,39.2,26.6,61,30.12,10.0,South,9.2,-,N/A,,Clear,190,2014-04-05 15:14:00
10:34 AM,39.2,26.6,61,30.12,10.0,South,8.1,-,N/A,,Clear,180,2014-04-05 15:34:00
10:54 AM,41.0,26.6,57,30.13,10.0,South,9.2,-,N/A,,Clear,190,2014-04-05 15:54:00
11:14 AM,42.8,28.4,57,30.13,10.0,SSW,13.8,17.3,N/A,,Clear,210,2014-04-05 16:14:00
11:34 AM,42.8,28.4,57,30.12,10.0,South,10.4,-,N/A,,Clear,190,2014-04-05 16:34:00
11:54 AM,42.8,28.4,57,30.12,10.0,South,10.4,16.1,N/A,,Clear,190,2014-04-05 16:54:00
12:14 PM,44.6,30.2,57,30.11,10.0,South,12.7,-,N/A,,Clear,180,2014-04-05 17:14:00
12:34 PM,44.6,30.2,57,30.11,10.0,South,10.4,16.1,N/A,,Clear,180,2014-04-05 17:34:00
12:54 PM,46.4,30.2,53,30.11,10.0,South,9.2,17.3,N/A,,Clear,190,2014-04-05 17:54:00
1:14 PM,46.4,32.0,57,30.10,10.0,SSW,12.7,17.3,N/A,,Clear,200,2014-04-05 18:14:00
1:34 PM,46.4,32.0,57,30.10,10.0,SSW,11.5,18.4,N/A,,Clear,200,2014-04-05 18:34:00
1:54 PM,48.2,32.0,54,30.09,10.0,SSW,13.8,17.3,N/A,,Clear,200,2014-04-05 18:54:00
2:14 PM,48.2,33.8,58,30.08,10.0,South,11.5,18.4,N/A,,Clear,190,2014-04-05 19:14:00
2:34 PM,48.2,33.8,58,30.08,10.0,South,11.5,18.4,N/A,,Clear,170,2014-04-05 19:34:00
2:54 PM,50.0,33.8,54,30.06,10.0,South,12.7,18.4,N/A,,Scattered Clouds,170,2014-04-05 19:54:00
3:14 PM,51.8,33.8,50,30.06,10.0,South,13.8,24.2,N/A,,Clear,180,2014-04-05 20:14:00
3:33 PM,51.8,35.6,54,30.05,10.0,South,10.4,17.3,N/A,,Clear,190,2014-04-05 20:33:00
3:54 PM,51.8,35.6,54,30.04,10.0,SSE,13.8,20.7,N/A,,Clear,160,2014-04-05 20:54:00
4:14 PM,51.8,35.6,54,30.02,10.0,South,11.5,20.7,N/A,,Clear,180,2014-04-05 21:14:00
4:33 PM,53.6,35.6,51,30.02,10.0,SSE,12.7,20.7,N/A,,Clear,160,2014-04-05 21:33:00
4:54 PM,53.6,35.6,51,30.01,10.0,SSE,13.8,18.4,N/A,,Clear,150,2014-04-05 21:54:00
5:14 PM,53.6,35.6,51,30.00,10.0,SSE,16.1,-,N/A,,Clear,150,2014-04-05 22:14:00
5:34 PM,53.6,35.6,51,30.01,10.0,South,10.4,-,N/A,,Clear,170,2014-04-05 22:34:00
5:54 PM,53.6,35.6,51,30.01,10.0,South,12.7,17.3,N/A,,Clear,170,2014-04-05 22:54:00
6:14 PM,51.8,33.8,50,30.00,10.0,South,13.8,-,N/A,,Scattered Clouds,170,2014-04-05 23:14:00
6:34 PM,51.8,33.8,50,30.00,10.0,SSE,11.5,19.6,N/A,,Scattered Clouds,160,2014-04-05 23:34:00
6:54 PM,51.8,33.8,50,30.00,10.0,SSE,10.4,-,N/A,,Overcast,160,2014-04-05 23:54:00
7:13 PM,51.8,33.8,50,30.00,10.0,SSE,10.4,-,N/A,,Mostly Cloudy,160,2014-04-06 00:13:00
7:34 PM,50.0,33.8,54,29.99,10.0,SSE,10.4,16.1,N/A,,Overcast,160,2014-04-06 00:34:00
7:54 PM,48.2,33.8,58,29.99,10.0,SSE,10.4,-,N/A,,Mostly Cloudy,160,2014-04-06 00:54:00
8:13 PM,48.2,33.8,58,29.99,10.0,SSE,10.4,-,N/A,,Mostly Cloudy,160,2014-04-06 01:13:00
8:34 PM,46.4,32.0,57,29.99,10.0,SSE,10.4,-,N/A,,Scattered Clouds,160,2014-04-06 01:34:00
8:54 PM,46.4,32.0,57,29.99,10.0,SSE,9.2,-,N/A,,Clear,160,2014-04-06 01:54:00
9:14 PM,46.4,32.0,57,29.99,10.0,SSE,9.2,-,N/A,,Clear,160,2014-04-06 02:14:00
9:34 PM,44.6,32.0,61,30.00,10.0,South,8.1,-,N/A,,Clear,170,2014-04-06 02:34:00
9:53 PM,44.6,32.0,61,30.00,10.0,South,5.8,-,N/A,,Clear,170,2014-04-06 02:53:00
10:14 PM,44.6,32.0,61,29.99,10.0,SSE,8.1,-,N/A,,Clear,160,2014-04-06 03:14:00
10:34 PM,44.6,30.2,57,29.99,10.0,SSE,6.9,-,N/A,,Scattered Clouds,160,2014-04-06 03:34:00
10:54 PM,44.6,30.2,57,29.98,10.0,SSE,8.1,-,N/A,,Scattered Clouds,160,2014-04-06 03:54:00
11:14 PM,44.6,28.4,53,29.98,10.0,SSE,11.5,16.1,N/A,,Scattered Clouds,160,2014-04-06 04:14:00
11:34 PM,44.6,28.4,53,29.98,10.0,SSE,10.4,16.1,N/A,,Scattered Clouds,160,2014-04-06 04:34:00
11:54 PM,44.6,28.4,53,29.97,10.0,SSE,10.4,17.3,N/A,,Scattered Clouds,160,2014-04-06 04:54:00